Weather History for WBGG - March, 2013

Change the Weather History Date:

Friday, March 8, 2013

  Actual Average Record
Temperature  
Mean Temperature 80 °F -  
Max Temperature 86 °F 89 °F - ()
Min Temperature 73 °F 73 °F - ()
Cooling Degree Days 14    
Growing Degree Days 30 (Base 50)    
Moisture  
Dew Point 74 °F    
Average Humidity 85    
Maximum Humidity 100    
Minimum Humidity 66    
Precipitation  
Precipitation 0.00 in 0.44 in - ()
Sea Level Pressure  
Sea Level Pressure 29.87 in    
Wind  
Wind Speed 4 mph ()    
Max Wind Speed 9 mph    
Max Gust Speed -    
Visibility 5.7 miles    
Events Rain , Thunderstorm    
T = Trace of Precipitation, MM = Missing Value Source: Averaged Metar Reports

Daily Weather History Graph

Daily Weather History Graph

Search for Another Location

Airport or City:

Trip Planner

Search our weather history database for the weather conditions in past years. The results will help you decide how hot, cold, wet, or windy it might be!

Date:

Astronomy

Mar. 08, 2013 Rise Set
Actual Time 6:46 AM MYT 6:52 PM MYT
Civil Twilight 6:25 AM MYT 7:12 PM MYT
Nautical Twilight 6:01 AM MYT 7:37 PM MYT
Astronomical Twilight 5:37 AM MYT 8:01 PM MYT
Moon 3:24 AM MYT (3/8) 3:47 PM MYT (3/8)
Length of Visible Light 12h 47m
Length of Day
12h 05m
Waning Crescent, 16% of the Moon is Illuminated
Mar 8
Waning Crescent
Mar 12
New
Mar 20
First Quarter
Mar 27
Full
Apr 3
Last Quarter

Hourly Weather History & Observations

Time (MYT) Temp. Heat Index Dew Point Humidity Pressure Visibility Wind Dir Wind Speed Gust Speed Precip Events Conditions
12:00 AM 77.0 °F - 75.2 °F 94% 29.92 in 5.0 mi SSW 5.8 mph - N/A Rain Light Rain
12:30 AM 77.0 °F - 75.2 °F 94% 29.89 in 5.0 mi SE 4.6 mph - N/A Rain , Thunderstorm Light Thunderstorms and Rain
1:00 AM 77.0 °F - 75.2 °F 94% 29.89 in 6.2 mi East 5.8 mph - N/A Rain , Thunderstorm Light Thunderstorms and Rain
1:30 AM 77.0 °F - 73.4 °F 89% 29.89 in 6.2 mi NW 4.6 mph - N/A Rain , Thunderstorm Light Thunderstorms and Rain
2:00 AM 75 °F - 72 °F 88% 29.90 in 6 mi North 3.5 mph - - Rain , Thunderstorm Thunderstorms and Rain
2:00 AM 75.2 °F - 71.6 °F 89% 29.89 in 6.2 mi North 3.5 mph - N/A Rain , Thunderstorm Light Thunderstorms and Rain
2:30 AM 75.2 °F - 71.6 °F 89% 29.89 in 3.7 mi NNW 4.6 mph - N/A Rain , Thunderstorm Light Thunderstorms and Rain
3:00 AM 73.4 °F - 71.6 °F 94% 29.89 in 3.7 mi North 1.2 mph - N/A Rain , Thunderstorm Light Thunderstorms and Rain
3:30 AM 73.4 °F - 73.4 °F 100% 29.89 in 3.7 mi SE 3.5 mph - N/A Rain , Thunderstorm Light Thunderstorms and Rain
4:00 AM 73.4 °F - 73.4 °F 100% 29.86 in 3.1 mi SE 2.3 mph - N/A Rain , Thunderstorm Thunderstorms and Rain
4:30 AM 73.4 °F - 73.4 °F 100% 29.86 in 3.1 mi ESE 2.3 mph - N/A Rain , Thunderstorm Thunderstorms and Rain
5:00 AM 74 °F - 73 °F 96% 29.89 in 3 mi ESE 2.3 mph - - Rain , Thunderstorm Thunderstorms and Rain
5:00 AM 73.4 °F - 73.4 °F 100% 29.89 in 3.1 mi ESE 2.3 mph - N/A Rain , Thunderstorm Thunderstorms and Rain
5:30 AM 73.4 °F - 73.4 °F 100% 29.86 in 3.1 mi ESE 2.3 mph - N/A Rain , Thunderstorm Thunderstorms and Rain
6:00 AM 73.4 °F - 73.4 °F 100% 29.89 in 3.1 mi East 1.2 mph - N/A Rain , Thunderstorm Thunderstorms and Rain
6:30 AM 73.4 °F - 73.4 °F 100% 29.89 in 3.1 mi East 3.5 mph - N/A Rain , Thunderstorm Light Thunderstorms and Rain
7:00 AM 73.4 °F - 73.4 °F 100% 29.89 in 3.1 mi SE 1.2 mph - N/A Rain Light Rain
7:30 AM 73.4 °F - 73.4 °F 100% 29.89 in 3.7 mi East 1.2 mph - N/A Rain Light Rain
8:00 AM 74 °F - 73 °F 95% 29.92 in 4 mi ESE 2.3 mph - - Rain Light Rain
8:00 AM 73.4 °F - 73.4 °F 100% 29.92 in 3.7 mi ESE 2.3 mph - N/A Rain Light Rain
8:30 AM 75.2 °F - 73.4 °F 94% 29.92 in 3.7 mi SSE 2.3 mph - N/A Rain Light Rain
9:00 AM 75.2 °F - 73.4 °F 94% 29.92 in 5.0 mi SE 2.3 mph - N/A Rain Light Rain
9:30 AM 75.2 °F - 73.4 °F 94% 29.95 in 5.0 mi SSE 4.6 mph - N/A Rain Light Rain
10:00 AM 75.2 °F - 73.4 °F 94% 29.95 in 6.2 mi ESE 2.3 mph - N/A   Mostly Cloudy
10:30 AM 77.0 °F - 73.4 °F 89% 29.95 in 6.2 mi ESE 3.5 mph - N/A   Mostly Cloudy
11:00 AM 78 °F - 74 °F 84% 29.95 in 6 mi SSE 3.5 mph - -   Partly Cloudy
11:00 AM 78.8 °F - 73.4 °F 83% 29.95 in 6.2 mi SSE 3.5 mph - N/A   Mostly Cloudy
11:30 AM 78.8 °F - 73.4 °F 83% 29.92 in 6.2 mi South 3.5 mph - N/A   Mostly Cloudy
12:00 PM 78.8 °F - 73.4 °F 83% 29.92 in 6.2 mi South 3.5 mph - N/A   Mostly Cloudy
12:30 PM 80.6 °F 85.4 °F 73.4 °F 79% 29.89 in 6.2 mi NNW 1.2 mph - N/A   Mostly Cloudy
1:00 PM 82.4 °F 89.5 °F 75.2 °F 79% 29.89 in 6.2 mi East 2.3 mph - N/A   Mostly Cloudy
1:30 PM 84.2 °F 92.3 °F 75.2 °F 74% 29.86 in 6.2 mi SE 2.3 mph - N/A   Mostly Cloudy
2:00 PM 86 °F - 76 °F 66% 29.85 in 12 mi ENE 4.6 mph - -   Partly Cloudy
2:00 PM 86.0 °F 96.9 °F 77.0 °F 74% 29.83 in 6.2 mi ENE 4.6 mph - N/A   Scattered Clouds
2:30 PM 86.0 °F 95.1 °F 75.2 °F 70% 29.83 in 6.2 mi NNE 5.8 mph - N/A   Scattered Clouds
3:00 PM 86.0 °F 95.1 °F 75.2 °F 70% 29.80 in 6.2 mi NNE 6.9 mph - N/A   Mostly Cloudy
3:30 PM 86.0 °F 93.4 °F 73.4 °F 66% 29.80 in 6.2 mi North 9.2 mph - N/A   Mostly Cloudy
4:00 PM 86.0 °F 93.4 °F 73.4 °F 66% 29.77 in 6.2 mi North 6.9 mph - N/A   Mostly Cloudy
4:30 PM 86.0 °F 93.4 °F 73.4 °F 66% 29.77 in 6.2 mi North 9.2 mph - N/A   Mostly Cloudy
5:00 PM 84 °F - 74 °F 66% 29.79 in 12 mi North 8.1 mph - -   Partly Cloudy
5:00 PM 84.2 °F 92.3 °F 75.2 °F 74% 29.77 in 6.2 mi North 8.1 mph - N/A   Mostly Cloudy
5:30 PM 84.2 °F 92.3 °F 75.2 °F 74% 29.77 in 6.2 mi NNE 8.1 mph - N/A   Mostly Cloudy
6:00 PM 84.2 °F 92.3 °F 75.2 °F 74% 29.80 in 6.2 mi North 6.9 mph - N/A   Mostly Cloudy
6:30 PM 82.4 °F 89.5 °F 75.2 °F 79% 29.80 in 6.2 mi North 8.1 mph - N/A   Mostly Cloudy
7:00 PM 82.4 °F 89.5 °F 75.2 °F 79% 29.83 in 6.2 mi NNE 6.9 mph - N/A   Mostly Cloudy
7:30 PM 82.4 °F 89.5 °F 75.2 °F 79% 29.83 in 6.2 mi North 5.8 mph - N/A   Mostly Cloudy
8:00 PM 82 °F - 76 °F 76% 29.85 in 9 mi NNW 6.9 mph - -   Partly Cloudy
8:00 PM 82.4 °F 89.5 °F 75.2 °F 79% 29.83 in 6.2 mi NNW 6.9 mph - N/A   Mostly Cloudy
8:30 PM 82.4 °F 89.5 °F 75.2 °F 79% 29.86 in 6.2 mi North 5.8 mph - N/A   Mostly Cloudy
9:00 PM 80.6 °F 86.2 °F 75.2 °F 84% 29.86 in 6.2 mi North 5.8 mph - N/A   Mostly Cloudy
9:30 PM 80.6 °F 86.2 °F 75.2 °F 84% 29.89 in 6.2 mi North 3.5 mph - N/A   Mostly Cloudy
10:00 PM 80.6 °F 86.2 °F 75.2 °F 84% 29.89 in 6.2 mi NNE 2.3 mph - N/A   Mostly Cloudy
10:30 PM 80.6 °F 86.2 °F 75.2 °F 84% 29.89 in 6.2 mi NNE 2.3 mph - N/A   Mostly Cloudy
11:00 PM 80 °F - 76 °F 82% 29.92 in 9 mi NNW 1.2 mph - -   Scattered Clouds
11:00 PM 80.6 °F 86.2 °F 75.2 °F 84% 29.92 in 6.2 mi NNW 1.2 mph - N/A   Mostly Cloudy
11:30 PM 80.6 °F 86.2 °F 75.2 °F 84% 29.89 in 6.2 mi North 2.3 mph - N/A   Mostly Cloudy